Back to catalog

ATLAS 5 CENTAUR R/B

AliveMEO
NORAD 40106·ROCKET BODY·🇺🇸 United States

Launched Aug 2, 2014 from Cape Canaveral Space Force Station

Loading…

Next Passes (next 24 hours)

TLE

FreshSource: Space-Track

Epoch: Sep 13, 2026, 03:07 UTC

1 40106U 14045B   26256.13037053  .00000009  00000-0  00000-0 0  9997
2 40106  55.3641 103.6616 0153723  29.4763 331.4703  1.90830629 84430

Track ATLAS 5 CENTAUR R/B in real time with AllMySat

Download on the App Store